[Iaude] MPEC E148: 2024 EC3 [a=1.30,e=0.28,i=6.6,H=28.6]
    mpec at cfa.harvard.edu 
    mpec at cfa.harvard.edu
       
    Mon Mar 11 20:53:17 EDT 2024
    
    
  
M.P.E.C. 2024-E148                               Issued 2024 March 12, 00:51 UT
     The Minor Planet Electronic Circulars contain information on unusual
         minor planets, routine data on comets and natural satellites,
         and occasional editorial announcements.  They are published
    on behalf of Division F of the International Astronomical Union by the
          Minor Planet Center, Smithsonian Astrophysical Observatory,
                          Cambridge, MA 02138, U.S.A.
			  
             Prepared using the Tamkin Foundation Computer Network
                              MPC at CFA.HARVARD.EDU
            URL https://www.minorplanetcenter.net/    ISSN 1523-6714
                                    2024 EC3                                    
Observations:
     K24E03C*1C2024 03 11.33606510 29 57.232+06 29 24.11         18.95GVEE148703
     K24E03C 1C2024 03 11.33832810 29 55.284+06 27 31.61         18.86GVEE148703
     K24E03C 1C2024 03 11.34284710 29 51.346+06 23 45.46               VEE148703
     K24E03C KC2024 03 11.36039110 29 37.561+06 09 04.03         18.57GVEE148I52
     K24E03C KC2024 03 11.36167510 29 36.517+06 07 59.20         19.39GVEE148I52
     K24E03C KC2024 03 11.36295710 29 35.426+06 06 53.89         18.66GVEE148I52
     K24E03C KC2024 03 11.36346310 29 35.106+06 06 28.19         18.74GVEE148I52
     K24E03C KC2024 03 11.42290410 28 48.960+05 15 10.40               VEE148I52
     K24E03C KC2024 03 11.42419210 28 47.900+05 14 02.80         18.78GVEE148I52
     K24E03C KC2024 03 11.42547610 28 46.950+05 12 55.80         19.32GVEE148I52
     K24E03C KC2024 03 11.42597810 28 46.580+05 12 28.90         19.10GVEE148I52
     K24E03C KC2024 03 11.49327110 28 50.592+04 31 10.88         19.5 GVEE148474
     K24E03C KC2024 03 11.49381310 28 50.095+04 30 40.86         19.1 GVEE148474
     K24E03C KC2024 03 11.49489510 28 49.150+04 29 41.57         19.2 GVEE148474
     K24E03C KC2024 03 11.49543610 28 48.713+04 29 11.69         19.1 GVEE148474
     K24E03C KB2024 03 11.83792 10 25 36.816-01 49 14.27         19.0 GXEE148K74
     K24E03C KB2024 03 11.84571 10 25 29.446-01 58 23.20         19.0 GXEE148K74
     K24E03C KB2024 03 11.85351 10 25 21.967-02 07 35.18         18.7 GXEE148K74
     K24E03C KB2024 03 11.87969 10 25 01.60 -02 37 42.6          18.5 GXEE148K19
     K24E03C KB2024 03 11.88097 10 25 00.42 -02 39 13.8          18.3 GXEE148K19
     K24E03C KB2024 03 11.88219 10 24 59.07 -02 40 42.4          19.3 GXEE148K19
     K24E03C KB2024 03 11.90114710 24 45.06 -03 03 40.0          18.8 GXEE148958
     K24E03C KB2024 03 11.90508710 24 40.91 -03 08 31.3          18.7 GXEE148958
     K24E03C KB2024 03 11.90900810 24 36.79 -03 13 20.2          18.8 GXEE148958
     K24E03C HB2024 03 11.93013110 24 05.30 -03 40 01.4          19.1 GVEE148204
     K24E03C HB2024 03 11.93545610 23 59.48 -03 46 41.0                VEE148204
     K24E03C 1C2024 03 11.94581 10 23 46.13 -04 00 40.7          20.2 VXEE148033
     K24E03C 1C2024 03 11.94604 10 23 45.88 -04 00 58.4          20.6 VXEE148033
     K24E03C KC2024 03 11.96552510 23 26.23 -04 24 41.3          18.7 GVEE148203
     K24E03C KC2024 03 11.97209510 23 18.91 -04 33 07.1          18.5 GVEE148203
Observer details:
033 Karl Schwarzschild Observatory, Tautenburg.  Observers S. Melnikov, C.
    Hogner, F. Ludwig, M. Hartmann, B. Stecklum.  Measurer B. Stecklum.
    1.34-m f/3 Schmidt + CCD.
203 GiaGa Observatory.  Observer G. Galli.  0.36-m f/5.76 Schmidt-Cassegrain +
    CCD.
204 Schiaparelli Observatory.  Observer L. Buzzi.  0.84-m f/3.5 reflector +
    CMO.
474 Mount John Observatory, Lake Tekapo.  Observers A. C. Gilmore, P. M.
    Kilmartin.  Measurer P. M. Kilmartin.  1.0-m f/7.7 Reflector + CCD.
703 Catalina Sky Survey.  Observer H. Groeller.  Measurers T. Beuden, V. F.
    Carvajal, D. Fay, J. B. Fazekas, D. C. Fuls, A. R. Gibbs, A. D. Grauer, H.
    Groeller, J. K. Hogan, R. A. Kowalski, S. M. Larson, G. J. Leonard, D.
    Rankin, R. L. Seaman, F. C. Shelly, K. W. Wierzchos.  0.68-m Schmidt + 10K
    CCD.
958 Observatoire de Dax.  Observer P. Dupouy.  0.50-m f/4.5 Reflector + CMO.
I52 Steward Observatory, Mt. Lemmon Station.  Observer H. Groeller.  Measurers
    T. Beuden, V. F. Carvajal, D. Fay, J. B. Fazekas, D. C. Fuls, A. R. Gibbs,
    A. D. Grauer, H. Groeller, J. K. Hogan, R. A. Kowalski, S. M. Larson, G.
    J. Leonard, D. Rankin, R. L. Seaman, F. C. Shelly, K. W. Wierzchos.  1.0-m
    prime focus + CCD.
K19 PASTIS Observatory, Banon.  Observer C. Demeautis.  0.28-m f/2.2 reflector
    + CMO.
K74 Muensterschwarzach Observatory, Schwarzach.  Observer C. Gerhard.  0.30-m
    f/3.75 reflector + CMO.
Orbital elements:
2024 EC3                                                 Earth MOID = 0.0060 AU
Epoch 2024 Mar. 31.0 TT = JDT 2460400.5                 Veres                   
M 347.79726              (2000.0)            P               Q                  
n   0.66333963     Peri.  224.79983     -0.81599616     +0.57774305             
a   1.3021032      Node   350.43751     -0.49298880     -0.71275001             
e   0.2774355      Incl.    6.58790     -0.30184817     -0.39774413             
P   1.49           H   28.63          G   0.15           U   7                  
Residuals in seconds of arc
240311 703  1.8+  0.0     240311 I52  0.2-  0.5+    240311 K19  0.4-  0.6+
240311 703  0.2+  0.1+    240311 474  0.5+  0.4+    240311 958  0.2+  0.9+
240311 703  4.0-  0.6-    240311 474  0.0   0.0     240311 958  0.2-  0.5-
240311 I52  0.6+  0.5+    240311 474  0.4-  0.1-    240311 958  0.1-  0.0
240311 I52  0.4+  0.7+    240311 474  0.1-  0.3-    240311 204  0.2+  0.2-
240311 I52  0.5-  0.3+    240311 K74  0.2-  0.3-    240311 204  0.4-  0.0
240311 I52  0.7+  0.3+    240311 K74  0.1-  0.5-    240311 033  0.1+  0.1+
240311 I52  1.1+  0.5-    240311 K74  0.1+  0.0     240311 033  0.0   0.2-
240311 I52  0.4-  0.0     240311 K19  0.9-  0.8-    240311 203  0.2+  0.2+
240311 I52  0.3-  0.9+    240311 K19  1.1+  0.7+    240311 203  0.1-  0.2-
Ephemeris:
2024 EC3                 a,e,i = 1.30, 0.28, 7                   q = 0.9409
Date    TT    R. A. (2000) Decl.     Delta      r    Elong.  Phase     V
2024 02 11    10 52 28.4 +36 17 34   0.1384  1.1110   152.1    24.6    25.7
...
2024 02 26    10 53 08.3 +36 07 11   0.06922 1.0518   152.6    25.7    24.1
...
2024 03 05    10 48 55.7 +32 09 42   0.03519 1.0235   153.7    25.4    22.6
...
2024 03 11    10 32 52.6 +10 43 41   0.01125 1.0043   165.2    14.6    19.7
2024 03 12    10 23 08.7 -04 54 12   0.0080031.0013   161.6    18.3    19.1
2024 03 13    10 01 23.7 -35 06 56   0.0060140.9983   136.3    43.4    19.2
...
2024 03 19    23 15 45.9 -54 39 32   0.02431 0.9817    54.7   124.2    25.7
...
2024 03 27    23 04 16.0 -46 07 41   0.05711 0.9635    51.8   125.6    27.6
...
2024 04 11    23 07 34.3 -40 41 43   0.1195  0.9434    57.5   116.3    28.5
M. P. C. Staff               (C) Copyright 2024 MPC           M.P.E.C. 2024-E148
    
    
More information about the Iaude
mailing list